Regional Weather Roundup
Issued by NWS

Home | Current Version | Previous Version | Graphics & Text | Print | Product List | Glossary On
Versions: 1 2 3 4 5 6 7 8 9 10 11 12 13 14 15 16 17 18 19 20 21 22 23 24 25 26 27 28 29 30 31 32 33 34 35 36 37 38 39 40 41 42 43 44 45 46 47 48 49 50
000
ASUS43 KMKX 190411
RWRWI

WISCONSIN REGIONAL WEATHER ROUNDUP
NATIONAL WEATHER SERVICE MILWAUKEE/SULLIVAN WI
1000 PM CST THU DEC 18 2014

NOTE: "FAIR" INDICATES FEW OR NO CLOUDS BELOW 12,000 FEET WITH NO
SIGNIFICANT WEATHER AND/OR OBSTRUCTIONS TO VISIBILITY.

WIZ001-002-006>008-014>016-023>028-190500-
NORTHWEST WISCONSIN

CITY           SKY/WX    TMP DP  RH WIND       PRES   REMARKS
SUPERIOR ARPT  CLOUDY    24  21  87 SW5       30.27S WCI  18
ASHLAND        CLOUDY    21  17  84 SW5       30.28S WCI  15
HAYWARD        CLOUDY    22  19  89 SE5       30.24S WCI  16
SIREN          CLOUDY    23  19  87 SE3       30.26S
CUMBERLAND     CLOUDY    21  19  93 SE5       30.24S WCI  15
RICE LAKE      CLOUDY    23  20  90 SE5       30.27R WCI  17
CHETEK         CLOUDY    22  20  91 SE5       30.26R WCI  16
LADYSMITH      CLOUDY    23  20  88 CALM      30.26S
EAU CLAIRE     CLOUDY    24  18  77 SE5       30.26S WCI  18
MENOMONIE      CLOUDY    24  20  83 CALM      30.27S
NEW RICHMOND   CLOUDY    22  19  89 SE3       30.26S
OSCEOLA        CLOUDY    23  20  87 S5        30.29S WCI  17
$$

WIZ003>005-009-010-017-018-190500-
NORTH CENTRAL WISCONSIN

CITY           SKY/WX    TMP DP  RH WIND       PRES   REMARKS
MANITOWISH WTR PTCLDY     4   1  89 CALM      30.22S
ARBOR VITAE    PTCLDY    11   8  88 CALM      30.22S
WOODRUFF       PTCLDY    11   8  88 CALM      30.22S
RHINELANDER    CLEAR      6   4  91 CALM      30.22R
EAGLE RIVER    PTCLDY     6   4  89 CALM      30.22R
LAND O LAKES   PTCLDY     1  -3  85 CALM      30.23R
PHILLIPS       CLOUDY    18  16  93 CALM      30.22F
TOMAHAWK       PTCLDY     6   3  88 CALM      30.24S
MEDFORD        CLOUDY    20  18  91 CALM      30.22S
MERRILL        PTCLDY    11   9  92 CALM      30.24R
$$

WIZ029-030-035-036-043>047-190500-
CENTRAL WISCONSIN

CITY           SKY/WX    TMP DP  RH WIND       PRES   REMARKS
WAUSAU         PTCLDY    18  15  88 N3        30.23R
MOSINEE        PTCLDY    19  19 100 N5        30.24S WCI  13
MARSHFIELD     CLOUDY    24  20  84 CALM      30.24R
STEVENS POINT  PTCLDY    13  11  90 CALM      30.26R
WAUPACA        PTCLDY    20  17  88 CALM      30.26S
WAUTOMA        PTCLDY    16  14  91 CALM      30.27R
WISC RAPIDS    PTCLDY    19  15  84 CALM      30.27R
CAMP DOUGLAS   CLOUDY    24  24  99 CALM      30.26S
$$

WIZ011>013-019>022-031-037>040-048>050-190500-
NORTHEAST WISCONSIN

CITY           SKY/WX    TMP DP  RH WIND       PRES   REMARKS
ANTIGO         CLEAR     11  10  95 CALM      30.22S
SHAWANO        CLEAR     19  16  90 CALM      30.26S
OCONTO         CLEAR     15  14  98 CALM      30.27S
STURGEON BAY   CLEAR     18  12  79 CALM      30.27S
GREEN BAY      CLEAR     20  17  88 CALM      30.26S
MANITOWOC      CLEAR     22  19  89 NW5       30.26S WCI  16
APPLETON       CLEAR     19  16  86 W8        30.25S WCI   9
CLINTONVILLE   CLEAR     21  18  86 CALM      30.26R
OSHKOSH        PTCLDY    22  17  81 W5        30.26R WCI  16
$$

WIZ032>034-041-042-053>061-190500-
SOUTHWEST WISCONSIN

CITY           SKY/WX    TMP DP  RH WIND       PRES   REMARKS
LA CROSSE      CLOUDY    26  19  74 S5        30.29R WCI  20
SPARTA         CLOUDY    25  20  82 CALM      30.28R
VIROQUA        CLOUDY    23  20  89 CALM      30.24R
BOSCOBEL       CLOUDY    27  18  69 CALM      30.29R
PRAIRIE DU CHI CLOUDY    27  17  67 CALM      30.28S
PLATTEVILLE    CLOUDY    25  19  79 CALM      30.26S
$$

WIZ056-057-062-063-064-067-068-190500-
SOUTH CENTRAL WISCONSIN

CITY           SKY/WX    TMP DP  RH WIND       PRES   REMARKS
REEDSBURG      CLOUDY    25  20  82 CALM      30.26S
BARABOO/DELLS  CLOUDY    25  20  80 CALM      30.25S
LONE ROCK      CLOUDY    29  19  66 CALM      30.28
MINERAL POINT  CLOUDY    27  21  80 CALM      30.25S
MADISON        CLOUDY    27  21  78 N3        30.26R
MIDDLETON      CLOUDY    28  21  76 CALM      30.26S
WATERTOWN      CLOUDY    26  22  87 NW3       30.26R
MONROE         CLOUDY    27  23  86 W5        30.24S WCI  21
JANESVILLE     CLOUDY    28  27  93 CALM      30.25S
$$

WIZ051-052-058>065-066-070>072-190500-
SOUTHEAST WISCONSIN

CITY           SKY/WX    TMP DP  RH WIND       PRES   REMARKS
MILWAUKEE      CLOUDY    28  20  71 W6        30.25S WCI  22
WAUKESHA       CLOUDY    27  21  80 NW3       30.26S
MILWAUKEE/TIMM CLOUDY    28  21  74 NW5       30.26S WCI  23
RACINE         CLOUDY    28  23  81 CALM      30.27R
BURLINGTON     CLOUDY    26  23  89 N5        30.25S WCI  20
KENOSHA        CLOUDY    28  23  81 N5        30.25S WCI  23
FOND DU LAC    PTCLDY    20  16  84 CALM      30.26R
SHEBOYGAN      CLEAR     20  16  84 NW5       30.25S WCI  13
WEST BEND      CLOUDY    27  21  80 NW5       30.24R WCI  21
JUNEAU         PTCLDY    23  20  89 CALM      30.26R
$$

LSZ147-162-190500-
LAKE SUPERIOR

STATION/POSITION TIME  TEMP    WIND        PRES    WAVE
                       AIR SEA DIR/SP/G            HT/PER
                 (UTC) (F)     (DEG/KT/KT) (MB)    (FT/S)
DEVILS ISLAND    0400   27     240/  4/  5 1026.1F
PORT WING        0340   24     190/  6/  7 1025.4S
SAXON HARBOR     0300   23        CALM     1025.4
$$

LMZ867-665-643>646-190500-
LAKE MICHIGAN

STATION/POSITION TIME  TEMP    WIND        PRES    WAVE
                       AIR SEA DIR/SP/G            HT/PER
                 (UTC) (F)     (DEG/KT/KT) (MB)    (FT/S)
CHAMBERS ISLAND  0300   29      20/ 11/ 14 1024.4F
NORTHPORT PIER   0402   27      20/  7/  9 1024.7R
SISTER BAY       0343           CALM  /  4   N/A
ALGOMA LAKESHORE 0314          320/  7/  9   N/A
KEWAUNEE LAKESHO 0300   19     310/  4/  6 1023.7R
SHEBOYGAN LAKESH 0400   25 34  310/  6/  8 1025.6F
PORT WASHINGTON  0300   28     330/  6/  8 1025.1
MILWAUKEE LAKESH 0300   29     290/  5/  6   N/A
KENOSHA   LAKESH 0400   28     300/  6/  9 1024.4S
$$

TC  - TEMPERATURE IN CELSIUS
VSB - VISIBILITY IN STATUTE MILES
WCI - WIND CHILL INDEX
HX  - HEAT INDEX




USA.gov is the U.S. government's official web portal to all federal, state and local government web resources and services.